Marina Di Campo Airport

Jump to: basic info | weather | frequencies | runways | comments

Related pages: nearby airports | nearby navaids | notams | map

Basic information (top)

Codes: EBA LIRJ
Location: lon 42.760300, lat 10.239400, elev 31 ft / 9 m msl
Status: medium_airport

Weather (top)

Current conditions for Bastia-Poretta Airport 36nm (66km) WSW (rec'd 2014/10/21 14:30Z):

LFKB 211430Z 09005KT 060V130 9999 FEW020 BKN230 23/17 Q1011 NOSIG

Airport forecast for Bastia-Poretta Airport 36nm (66km) WSW (rec'd 2014/10/21 12:15Z):

TAF LFKB 211100Z 2112/2212 14010KT 9999 FEW020 SCT230 
      BECMG 2118/2120 VRB03KT 
      BECMG 2120/2122 27010KT 
      BECMG 2200/2202 33010G20KT 
      TEMPO 2202/2206 33015G30KT TX26/2112Z TN18/2205Z

Frequencies (top)

Verify before use: may be inaccurate or out of date.

AFIS: 123.7 MHz (AFIS)

Runways (top)

16/34: 3,114 x 75 ft (949 x 23 m) — paved — not lighted — threshold 16 displaced 479 ft (146 m) — threshold 34 displaced 285 ft (87 m)

Latest comments (top)

No comments yet for Marina Di Campo Airport

More... (top)

See also NOTAMs and nearby airports and navaids, or visit the Marina Di Campo Airport page at the main OurAirports website..